Voltar ao catálogo

BREEZE-M DEB

AtivoHEO
NORAD 38621·DEBRIS·🇷🇺 Russia

Lançado Mar 14, 2008 de Baikonur Cosmodrome

Loading…

Próximas Passagens (próximas 24 horas)

TLE

AtualizadoSource: Space-Track

Época: Sep 11, 2026, 11:35 UTC

1 38621U 08011BU  26254.48315058  .00001591  00000-0  64355-1 0  9993
2 38621  49.1145   8.5937 6410185 233.0081  49.8235  3.02446171 26175

Acompanhe BREEZE-M DEB em tempo real com AllMySat

Download on the App Store